Flag for Cayman Islands Weather past 2 weeks in George Town, Cayman Islands

Now
81 °F

Warm.


Feels Like: 85 °F
Forecast: 80 / 84 °F
Wind: 20 mph from East

Location: Cayo Largo Del Sur

Current Time: May 27, 2015 at 5:39:27 AM

Latest Report: May 27, 2015 at 5:05 AM


Visibility: N/A

Pressure: 30.01 "Hg

Humidity: 74%

Dew point: 72 °F

Location of George TownLocation

Historic Weather in George Town — Graph

°F

George Town temperature yesterday

Maximum temperature yesterday: 86 °F (at 11:53 AM)
Minimum temperature yesterday: 79 °F (at 12:05 AM)
Average temperature yesterday: 83 °F

Past Weeks' High & Low Weather Summary

 TemperatureHumidityPressure
High88 °F (May 18, 2:51 PM)84% (May 12, 4:05 AM)30.12 "Hg (May 12, 4:05 AM)
Low75 °F (May 24, 11:05 PM)43% (May 18, 2:51 PM)29.92 "Hg (May 20, 4:52 PM)
Average83 °F68%30.03 "Hg
* Reported May 12 4:05 AM — May 27 4:05 AM, George Town, Weather by CustomWeather, © 2015

Note: Actual official high and low records may vary slightly from our data, if they occured in-between our weather recording intervals... More about our weather records

Advertising

George Town weather history for previous 24 hours

 ConditionsComfort  
Time TempWeatherWind HumidityBarometerVisibility
4:05 AM
Wed, May 27
81 °FWarm.16 mph74%30.01 "HgN/A
3:05 AM82 °FWarm.17 mph70%30.01 "HgN/A
2:05 AM81 °FWarm.15 mph79%30.01 "HgN/A
1:05 AM81 °FWarm.15 mph79%30.01 "HgN/A
12:05 AM82 °FWarm.14 mph70%30.04 "HgN/A
11:05 PM
Tue, May 26
82 °FWarm.6 mph70%30.04 "HgN/A
9:51 PM82 °FPassing clouds.5 mph70%30.04 "Hg6 mi
8:52 PM81 °FPassing clouds.5 mph74%30.04 "Hg6 mi
7:52 PM81 °FPartly sunny.7 mph70%30.01 "Hg6 mi
6:52 PM82 °FPartly sunny.8 mph66%30.01 "Hg6 mi
5:51 PM84 °FPartly sunny.12 mph62%30.01 "HgN/A
4:52 PM84 °FPartly sunny.13 mph58%30.01 "HgN/A
3:53 PM86 °FPartly sunny.14 mph52%30.04 "HgN/A
2:52 PM86 °FPartly sunny.15 mph59%30.04 "HgN/A
1:52 PM86 °FPartly sunny.17 mph59%30.07 "HgN/A
12:51 PM86 °FPartly sunny.18 mph55%30.07 "HgN/A
11:53 AM86 °FPartly sunny.18 mph59%30.09 "HgN/A
10:53 AM84 °FPartly sunny.20 mph62%30.09 "Hg6 mi
9:53 AM84 °FPartly sunny.20 mph66%30.09 "Hg6 mi
8:52 AM84 °FPartly sunny.18 mph66%30.09 "Hg6 mi
7:52 AM84 °FScattered clouds.18 mph66%30.07 "Hg6 mi
6:53 AM82 °FScattered clouds.20 mph70%30.07 "Hg5 mi
5:51 AM81 °FThunderstorms. Passing clouds.16 mph79%30.04 "Hg5 mi
5:05 AM81 °FWarm.14 mph79%30.04 "HgN/A
Weather by CustomWeather, © 2015

See weather overviewHow to use our weather pages